Probability
0 0 0 0 0 0 0 0 0 0 0 0 0 0 0 0 0 0 0 0 0 0 0 0 0 0 0 0 0 0 0 0 0 0 0 0 0 0 0 0 0 0 0 0
0 0 0 0 0 0 0 0 0 0 0 0 0 0 0 0 0 0 0 0 0 0 0 0 0 0 0 0 0 0 0 0 0 0 0 0 0 0 0 0 0 0 0 0
0 0 0 0 0 0 0 0 0 0 0 0 0 0 0 0 0 0 0 0 0 0 0 0 0 0 0 0 0 0 0 0 0 0 0 0 0 0 0 0 0 0 0 0
0 0 0 0 0 0 0 0 0 0 0 0 0 0 0 0 0 0 0 0 0 0 0 0 0 0 0 0 0 0 0 0 0 0 0 0 0 0 0 0 0 0 0 0
0 0 0 0 0 0 0 0 0 0 0 0 0 0 0 0 0 0 0 0 0 0 0 0 0 0 0 0 0 0 0 0 0 0 0 0 0 0 0 0 0 0 0 0
0 0 0 0 0 0 0 0 0 0 0 0 0 0 0 0 0 0 0 0 0 0 0 0 0 0 0 0 0 0 0 0 0 0 0 0 0 0 0 0 0 0 0 0
0 0 0 0 0 0 0 0 0 0 0 0 0 0 0 0 0 0 0 0 0 0 0 0 0 0 0 0 0 0 0 0 0 0 0 0 0 0 0 0 0 0 0 0
0 0 0 0 0 0 0 0 0 0 0 0 0 0 0 0 0 0 0 0 0 0 0 0 0 0 0 0 0 0 0 0 0 0 0 0 0 0 0 0 0 0 0 0
0 0 0 0 0 0 0 0 0 0 0 0 0 0 0 0 0 0 0 0 0 0 0 0 0 0 0 0 0 0 0 0 0 0 0 0 0 0 0 0 0 0 0 0
0 0 0 0 0 0 0 0 0 0 0 0 0 0 0 0 0 0 0 0 0 0 0 0 0 0 0 0 0 0 0 0 0 0 0 0 0 0 0 0 0 0 0 0
0 0 0 0 0 0 0 0 0 0 0 0 0 0 0 0 0 0 0 0 0 0 0 0 0 0 0 0 0 0 0 0 0 0 0 0 0 0 0 0 0 0 0 0
0 0 0 0 0 0 0 0 0 0 0 0 0 0 0 0 0 0 0 0 0 0 0 0 0 0 0 0 0 0 0 0 0 0 0 0 0 0 0 0 0 0 0 0
0 0 0 0 0 0 0 0 0 0 0 0 0 0 0 0 0 0 0 0 0 0 0 0 0 0 0 0 0 0 0 0 0 0 0 0 0 0 0 0 0 0 0 0
0 0 0 0 0 0 0 0 0 0 0 0 0 0 0 0 0 0 0 0 0 0 0 0 0 0 0 0 0 0 0 0 0 0 0 0 0 0 0 0 0 0 0 0
0 0 0 0 0 0 0 0 0 0 0 0 0 0 0 0 0 0 0 0 0 0 0 0 0 0 0 0 0 0 0 0 0 0 0 0 0 0 0 0 0 0 0 0
0 0 0 0 0 0 0 0 0 0 0 0 0 0 0 0 0 0 0 0 0 0 0 0 0 0 0 0 0 0 0 0 0 0 0 0 0 0 0 0 0 0 0 0
0 0 0 0 0 0 0 0 0 0 0 0 0 0 0 0 0 0 0 0 0 0 0 0 0 0 0 0 0 0 0 0 0 0 0 0 0 0 0 0 0 0 0 0
0 0 0 0 0 0 0 0 0 0 0 0 0 0 0 0 0 0 0 0 0 0 0 0 0 0 0 0 0 0 0 0 0 0 0 0 0 0 0 0 0 0 0 0
0 0 0 0 0 0 0 0 0 0 0 0 0 0 0 0 0 0 0 0 0 0 0 0 0 0 0 0 0 0 0 0 0 0 0 0 0 0 0 0 0 0 0 0
0 0 0 0 0 0 0 0 0 0 0 0 0 0 0 0 0 0 0 0 0 0 0 0 0 0 0 0 0 0 0 0 0 0 0 0 0 0 0 0 0 0 0 0
0 0 0 0 0 0 0 0 0 0 0 0 0 0 0 0 0 0 0 0 0 0 0 0 0 0 0 0 0 0 0 0 0 0 0 0 0 0 0 0 0 0 0 0
0 0 0 0 0 0 0 0 0 0 0 0 0 0 0 0 0 0 0 0 0 0 0 0 0 0 0 0 0 0 0 0 0 0 0 0 0 0 0 0 0 0 0 0
0 0 0 0 0 0 0 0 0 0 0 0 0 0 0 0 0 0 0 0 0 0 0 0 0 0 0 0 0 0 0 0 0 0 0 0 0 0 0 0 0 0 0 0
0 0 0 0 0 0 0 0 0 0 0 0 0 0 0 0 0 0 0 0 0 0 0 0 0 0 0 0 0 0 0 0 0 0 0 0 0 0 0 0 0 0 0 0
0 0 0 0 0 0 0 0 0 0 0 0 0 0 0 0 0 0 0 0 0 0 0 0 0 0 0 0 0 0 0 0 0 0 0 0 0 0 0 0 0 0 0 0
0 0 0 0 0 0 0 0 0 0 0 0 0 0 0 0 0 0 0 0 0 0 0 0 0 0 0 0 0 0 0 0 0 0 0 0 0 0 0 0 0 0 0 0
Wind_Speed
5 7 13 15 14 6 6 6 7 6 4 5 9 13 13 9 7 9 9 9 10 11 10 7 7 7 7 7 8 10 10 10 8 6 7 7 8 8 7 8 8 9 9 9
6 15 12 6 7 7 6 7 7 3 2 4 6 12 11 11 10 11 12 12 12 10 8 8 7 6 8 8 9 9 10 9 10 9 7 5 4 5 6 5 7 9 9 9
16 7 8 8 9 11 12 11 9 5 1 2 4 11 10 9 8 9 10 11 10 11 11 9 8 8 7 9 10 9 11 10 10 9 4 3 2 1 3 5 7 9 10 10
12 8 7 10 12 13 15 9 7 6 3 5 3 10 9 7 9 11 12 10 11 10 10 9 8 7 8 9 8 9 9 9 9 9 8 9 8 8 8 6 6 6 8 9
11 9 11 14 13 13 7 6 8 7 7 8 6 9 11 5 10 12 12 12 11 11 10 10 9 9 8 7 7 7 7 7 8 9 10 10 9 8 5 4 5 5 6 8
8 5 9 10 7 10 5 3 2 4 5 15 14 11 13 8 12 8 8 10 10 10 9 9 7 6 5 5 5 5 6 7 7 8 9 10 11 9 6 5 5 5 4 5
9 8 6 5 6 7 8 7 6 8 10 13 9 12 15 8 9 10 9 9 9 9 8 8 7 6 6 5 5 5 6 6 6 7 8 9 10 9 9 7 6 5 4 4
12 11 12 9 11 10 14 14 11 9 8 5 6 14 12 6 7 7 8 8 7 7 7 7 7 6 6 5 5 5 6 6 6 7 7 7 7 6 5 6 5 5 5 5
11 9 5 9 8 12 10 13 10 5 3 5 8 9 10 4 6 7 7 7 8 8 7 7 6 5 5 4 4 5 5 5 5 5 6 5 6 5 5 4 4 3 3 3
6 6 5 5 4 8 9 8 6 10 10 12 8 9 9 5 8 8 8 9 9 7 6 6 5 4 3 3 2 2 3 4 3 4 4 3 4 4 4 3 3 3 3 3
6 7 4 6 13 14 10 11 9 7 7 8 9 11 8 9 9 9 10 9 8 7 7 5 4 3 3 2 2 2 2 2 2 3 3 3 3 3 2 2 2 2 2 2
7 5 7 10 6 8 11 13 14 11 9 7 8 12 4 7 6 6 7 6 5 5 5 4 4 3 2 2 2 2 2 2 2 2 3 3 2 2 2 1 1 0 1 1
8 6 5 4 5 6 9 10 12 9 6 7 9 12 3 3 4 4 5 6 4 4 3 3 3 4 4 3 2 2 2 2 2 2 3 2 2 2 2 1 0 0 1 1
7 7 10 13 8 7 8 10 12 11 10 12 15 15 9 5 6 5 5 5 4 4 4 4 4 4 4 3 3 3 2 2 2 2 3 2 2 1 1 1 1 1 1 2
6 8 9 9 5 6 9 12 14 15 15 13 13 17 19 10 8 7 6 5 5 6 6 7 7 6 5 4 3 3 2 2 2 3 3 2 1 1 1 1 1 1 1 2
5 6 7 9 7 7 8 12 15 17 16 16 14 18 17 9 6 7 7 7 8 9 9 8 7 6 6 5 5 3 3 2 2 3 2 2 2 1 1 1 1 2 2 3
6 5 6 8 5 4 12 15 16 14 13 14 19 22 12 8 9 11 10 10 10 10 10 10 9 8 7 6 6 6 4 3 3 3 2 1 1 1 1 1 2 2 2 3
7 7 4 4 5 15 12 9 12 15 16 15 14 14 13 12 10 9 9 10 11 11 10 9 8 7 6 5 4 4 3 4 4 3 2 1 1 0 1 1 1 2 3 3
10 9 6 5 8 9 8 7 11 14 15 15 18 17 13 9 6 8 9 11 12 11 9 8 7 7 5 5 5 4 4 4 3 3 2 2 1 1 0 1 2 2 3 4
8 9 7 7 7 10 11 7 7 6 12 12 15 17 13 7 8 12 7 7 8 7 6 6 5 4 5 4 5 6 5 4 4 3 2 2 1 1 1 2 2 3 3 4
6 8 12 11 10 10 9 4 9 10 13 8 11 13 12 12 13 8 4 3 4 4 4 3 3 4 4 4 5 5 4 4 2 1 1 0 0 1 1 2 2 3 3 4
10 8 10 8 9 13 7 8 12 11 5 4 6 8 8 9 7 5 4 3 2 2 1 2 3 2 2 3 5 5 3 1 1 1 1 0 1 1 1 1 2 2 3 4
10 11 8 11 11 6 7 10 8 5 6 6 6 6 6 5 6 5 4 2 1 2 2 3 4 3 3 3 4 4 2 1 2 1 0 1 1 1 1 1 2 2 2 3
6 5 5 7 9 8 6 6 5 5 6 5 4 4 4 5 5 4 2 2 2 2 2 3 4 4 2 3 3 2 1 2 2 1 0 1 1 1 2 2 2 2 2 3
8 6 6 10 9 7 8 8 7 5 4 3 3 3 4 4 4 4 3 2 2 2 2 3 3 3 2 2 2 2 2 2 1 1 1 1 1 1 2 2 2 3 3 3
8 9 11 12 9 7 7 5 4 4 5 5 4 3 2 4 5 3 3 2 3 2 2 3 3 3 2 2 1 1 1 2 2 1 0 1 1 1 2 2 3 5 6 8
Wind_Direction
183 195 210 208 207 214 180 188 210 220 210 197 232 249 257 258 247 251 252 248 245 246 250 246 238 232 225 219 212 210 208 207 195 192 199 207 218 217 216 217 215 212 212 210
199 226 220 197 200 211 208 221 229 258 231 216 255 260 255 247 238 233 239 243 243 247 256 250 240 226 219 220 218 214 212 205 199 202 197 198 200 213 218 216 217 214 214 213
214 223 187 190 199 209 220 219 217 217 338 281 300 282 250 251 239 241 239 238 239 235 242 246 240 230 222 222 218 214 212 206 203 198 179 166 163 187 200 215 221 218 216 216
232 229 191 196 207 200 231 215 202 203 212 254 216 275 262 239 250 245 244 241 240 238 238 241 238 234 225 226 220 214 211 207 201 190 188 191 200 213 217 217 220 219 215 220
220 193 195 209 210 194 219 180 193 207 220 251 224 253 268 213 242 244 239 237 238 236 233 236 233 228 225 222 215 209 203 202 197 193 196 199 212 221 222 212 217 219 218 220
233 207 200 211 205 190 172 136 178 204 219 244 224 226 265 208 222 230 229 232 235 236 236 237 236 226 226 222 210 202 194 201 196 193 196 200 209 215 213 215 220 224 223 223
227 229 220 182 173 185 176 176 205 214 221 240 198 218 251 214 211 211 220 232 237 235 234 234 230 222 221 215 209 201 191 200 197 192 197 203 209 211 215 219 222 223 224 228
204 222 203 194 189 189 199 195 206 211 220 243 194 227 250 222 223 222 226 232 240 240 235 232 227 221 218 214 208 198 192 198 194 191 197 201 204 206 214 217 216 219 225 230
198 225 193 194 184 170 190 213 212 218 234 249 237 260 289 245 238 235 234 233 239 240 235 231 227 219 213 212 211 199 191 193 191 190 191 194 197 201 208 211 212 219 228 236
188 218 212 185 169 205 194 173 178 207 216 235 243 237 239 218 222 227 229 231 238 239 236 231 223 213 207 205 205 183 179 185 189 182 183 182 187 194 200 194 204 220 234 238
196 206 218 182 197 199 188 196 202 204 205 211 242 250 218 210 208 212 222 227 230 231 227 221 213 204 191 180 166 156 152 149 153 162 164 161 167 169 171 182 203 222 240 247
189 195 223 225 230 213 205 203 199 211 222 220 238 256 218 205 216 218 233 240 237 228 218 207 201 195 188 180 169 160 155 150 165 158 144 149 152 142 144 161 193 231 263 276
173 187 214 237 238 214 215 211 208 211 211 218 231 258 256 213 229 229 235 240 233 215 208 207 204 204 201 192 183 175 168 162 158 139 131 130 136 139 149 157 147 16 322 312
194 205 215 221 214 189 204 209 203 204 221 231 233 252 264 260 260 267 258 251 242 225 213 212 214 214 208 198 191 186 189 169 150 137 136 137 140 137 137 119 70 8 331 318
203 225 230 241 241 213 215 214 209 215 223 228 240 247 256 242 236 245 250 249 246 244 233 221 218 215 207 201 200 190 187 168 149 142 146 150 133 115 99 69 31 359 338 316
198 218 221 239 230 228 241 231 222 224 226 234 247 255 254 246 225 232 234 228 230 232 230 227 223 216 210 206 201 192 190 181 158 156 157 137 123 102 74 42 16 355 341 332
198 196 209 235 222 214 236 220 217 221 219 217 234 245 252 248 228 225 226 225 228 230 229 224 220 215 212 207 196 194 192 168 157 154 142 133 120 99 47 17 0 340 331 327
203 204 211 212 191 226 235 207 206 221 231 223 231 244 241 240 240 233 222 221 231 232 231 225 216 210 206 201 193 181 164 159 158 155 153 150 138 118 25 3 336 326 322 317
206 201 202 201 228 251 269 221 193 205 235 223 230 244 249 252 268 263 234 221 228 231 229 222 213 207 197 191 181 160 157 157 160 171 173 174 172 187 280 300 304 311 314 310
208 204 204 209 217 228 237 218 187 174 247 232 221 235 239 229 247 258 235 221 229 231 223 213 203 187 183 186 164 160 167 167 184 192 189 182 184 203 255 280 298 304 302 300
193 208 216 222 232 248 246 192 141 182 235 228 211 225 224 220 233 254 253 237 226 224 214 194 181 175 182 164 153 164 165 180 193 155 132 144 212 242 256 284 294 296 298 301
196 202 211 207 222 242 217 163 188 219 231 218 217 225 228 236 249 263 264 246 219 203 172 148 142 135 112 123 142 150 159 159 87 82 74 19 327 309 297 291 300 300 297 297
210 208 204 206 221 229 187 200 220 222 228 230 224 231 224 238 252 257 259 244 187 160 143 127 131 116 84 88 122 142 154 83 77 76 55 337 334 327 323 306 301 303 302 298
237 213 210 236 244 241 231 232 238 229 230 241 229 221 209 224 238 238 229 194 153 139 134 122 124 125 106 82 94 121 99 79 107 118 328 346 346 337 337 318 308 305 302 300
223 198 216 241 252 259 252 238 240 238 232 244 246 219 206 203 226 221 206 184 158 131 108 116 127 127 112 85 92 84 78 92 99 93 6 346 341 328 322 317 303 297 286 284
209 208 215 234 227 219 239 232 232 236 241 237 237 260 252 201 214 209 190 160 135 124 111 111 112 118 116 105 110 91 90 112 115 98 351 318 310 315 319 315 313 305 301 306